Location: S�tio Afonso Gruber
(26.1760°S, 49.5250°W)
Time: 00:44:35
(UTC+00:00)

Intelsat 5-3 Rocket - Pass Details

Date: 06 October 2020
Orbit: 281 x 6111 km, 23.6° (Epoch: 22 October)

Event Time Altitude Azimuth Distance (km) Brightness Sun altitude
Rises 23:34:52 0° 306° (NW) 2,870 6.4 -29.8°
Reaches altitude 10° 23:36:34 10° 313° (NW) 2,269 5.7 -30.2°
Enters shadow 23:38:59 31° 335° (NNW) 1,652 4.6 -30.7°
